Time,TemperatureF,DewpointF,PressureIn,WindDirection,WindDirectionDegrees,WindSpeedMPH,WindSpeedGustMPH,Humidity,HourlyPrecipIn,Conditions,Clouds,dailyrainin,SoftwareType,DateUTC
2013-06-16 00:02:00,74.0,73.0,-100.00,South,181,1.0,3.0,96,-99.99,,,-99.99,,2013-06-16 04:02:00,
2013-06-16 00:12:00,74.0,73.0,-100.00,South,181,1.0,3.0,96,-99.99,,,-99.99,,2013-06-16 04:12:00,
2013-06-16 00:23:00,74.0,73.0,-100.00,ESE,116,1.0,1.0,97,-99.99,,,-99.99,,2013-06-16 04:23:00,
2013-06-16 00:34:00,74.0,73.0,-100.00,ESE,116,1.0,1.0,97,-99.99,,,-99.99,,2013-06-16 04:34:00,
2013-06-16 00:42:00,74.0,73.0,-100.00,ESE,116,1.0,1.0,97,-99.99,,,-99.99,,2013-06-16 04:42:00,
2013-06-16 00:53:00,74.0,73.0,-100.00,ESE,116,1.0,1.0,97,-99.99,,,-99.99,,2013-06-16 04:53:00,
2013-06-16 01:02:00,74.0,73.0,-100.00,SSE,163,1.0,1.0,97,-99.99,,,-99.99,,2013-06-16 05:02:00,
2013-06-16 01:12:00,74.0,73.0,-100.00,SSE,163,1.0,1.0,97,-99.99,,,-99.99,,2013-06-16 05:12:00,
2013-06-16 01:22:00,74.0,73.0,-100.00,SE,131,1.0,2.0,97,-99.99,,,-99.99,,2013-06-16 05:22:00,
2013-06-16 01:34:00,74.0,73.0,-100.00,SE,131,1.0,2.0,97,-99.99,,,-99.99,,2013-06-16 05:34:00,
2013-06-16 01:43:00,74.0,73.0,-100.00,NE,45,2.0,3.0,97,-99.99,,,-99.99,,2013-06-16 05:43:00,
2013-06-16 01:52:00,74.0,73.0,-100.00,NE,45,2.0,3.0,97,-99.99,,,-99.99,,2013-06-16 05:52:00,
2013-06-16 02:01:00,74.0,73.0,-100.00,SE,128,1.0,3.0,97,-99.99,,,-99.99,,2013-06-16 06:01:00,
2013-06-16 02:12:00,74.0,73.0,-100.00,WSW,240,1.0,2.0,97,-99.99,,,-99.99,,2013-06-16 06:12:00,
2013-06-16 02:22:00,74.0,73.0,-100.00,WSW,240,1.0,2.0,97,-99.99,,,-99.99,,2013-06-16 06:22:00,
2013-06-16 02:33:00,74.0,73.0,-100.00,WSW,240,1.0,2.0,97,-99.99,,,-99.99,,2013-06-16 06:33:00,
2013-06-16 02:43:00,74.0,73.0,-100.00,South,180,1.0,1.0,97,-99.99,,,-99.99,,2013-06-16 06:43:00,
2013-06-16 02:52:00,74.0,73.0,-100.00,South,180,1.0,1.0,97,-99.99,,,-99.99,,2013-06-16 06:52:00,
2013-06-16 03:01:00,73.0,72.0,-100.00,South,178,1.0,3.0,97,-99.99,,,-99.99,,2013-06-16 07:01:00,
2013-06-16 03:12:00,73.0,72.0,-100.00,South,178,1.0,3.0,97,-99.99,,,-99.99,,2013-06-16 07:12:00,
2013-06-16 03:22:00,73.0,72.0,-100.00,SE,136,1.0,3.0,97,-99.99,,,-99.99,,2013-06-16 07:22:00,
2013-06-16 03:33:00,73.0,72.0,-100.00,SE,136,1.0,3.0,97,-99.99,,,-99.99,,2013-06-16 07:33:00,
2013-06-16 03:43:00,73.0,72.0,-100.00,SSE,147,3.0,5.0,97,-99.99,,,-99.99,,2013-06-16 07:43:00,
2013-06-16 03:53:00,73.0,72.0,-100.00,SE,139,2.0,3.0,97,-99.99,,,-99.99,,2013-06-16 07:53:00,
2013-06-16 04:02:00,73.0,72.0,-100.00,SE,139,2.0,3.0,97,-99.99,,,-99.99,,2013-06-16 08:02:00,
2013-06-16 04:12:00,73.0,72.0,-100.00,SE,139,2.0,3.0,97,-99.99,,,-99.99,,2013-06-16 08:12:00,
2013-06-16 04:22:00,72.0,72.0,-100.00,SW,214,0.0,1.0,97,-99.99,,,-99.99,,2013-06-16 08:22:00,
2013-06-16 04:33:00,72.0,72.0,-100.00,SW,214,0.0,1.0,97,-99.99,,,-99.99,,2013-06-16 08:33:00,
2013-06-16 04:43:00,72.0,71.0,-100.00,WNW,290,2.0,2.0,98,-99.99,,,-99.99,,2013-06-16 08:43:00,
2013-06-16 04:54:00,72.0,71.0,-100.00,WNW,290,2.0,2.0,98,-99.99,,,-99.99,,2013-06-16 08:54:00,
2013-06-16 05:02:00,72.0,71.0,-100.00,WNW,290,2.0,2.0,98,-99.99,,,-99.99,,2013-06-16 09:02:00,
2013-06-16 05:11:00,72.0,71.0,-100.00,WNW,290,2.0,2.0,98,-99.99,,,-99.99,,2013-06-16 09:11:00,
2013-06-16 05:22:00,71.0,70.0,-100.00,ENE,59,1.0,2.0,98,-99.99,,,-99.99,,2013-06-16 09:22:00,
2013-06-16 05:33:00,71.0,70.0,-100.00,ENE,59,1.0,2.0,98,-99.99,,,-99.99,,2013-06-16 09:33:00,
2013-06-16 05:43:00,71.0,70.0,-100.00,ESE,120,1.0,1.0,98,-99.99,,,-99.99,,2013-06-16 09:43:00,
2013-06-16 05:52:00,71.0,70.0,-100.00,ESE,120,1.0,1.0,98,-99.99,,,-99.99,,2013-06-16 09:52:00,
2013-06-16 06:02:00,70.0,70.0,-100.00,SSW,208,1.0,2.0,98,-99.99,,,-99.99,,2013-06-16 10:02:00,
2013-06-16 06:12:00,70.0,70.0,-100.00,SSW,208,1.0,2.0,98,-99.99,,,-99.99,,2013-06-16 10:12:00,
2013-06-16 06:22:00,70.0,69.0,-100.00,South,189,0.0,1.0,98,-99.99,,,-99.99,,2013-06-16 10:22:00,
2013-06-16 06:33:00,70.0,69.0,-100.00,South,177,1.0,2.0,98,-99.99,,,-99.99,,2013-06-16 10:33:00,
2013-06-16 06:43:00,70.0,69.0,-100.00,South,177,1.0,2.0,98,-99.99,,,-99.99,,2013-06-16 10:43:00,
2013-06-16 06:54:00,70.0,69.0,-100.00,South,177,1.0,2.0,98,-99.99,,,-99.99,,2013-06-16 10:54:00,
2013-06-16 07:02:00,69.0,69.0,-100.00,SSW,210,1.0,1.0,98,-99.99,,,-99.99,,2013-06-16 11:02:00,
2013-06-16 07:12:00,69.0,69.0,-100.00,SSW,210,1.0,1.0,98,-99.99,,,-99.99,,2013-06-16 11:12:00,
2013-06-16 07:22:00,69.0,69.0,-100.00,WSW,245,1.0,2.0,98,-99.99,,,-99.99,,2013-06-16 11:22:00,
2013-06-16 07:34:00,69.0,69.0,-100.00,WSW,245,1.0,2.0,98,-99.99,,,-99.99,,2013-06-16 11:34:00,
2013-06-16 07:43:00,69.0,69.0,-100.00,SE,128,1.0,2.0,98,-99.99,,,-99.99,,2013-06-16 11:43:00,
2013-06-16 07:53:00,69.0,69.0,-100.00,SE,128,1.0,2.0,98,-99.99,,,-99.99,,2013-06-16 11:53:00,
2013-06-16 08:02:00,70.0,69.0,-100.00,South,174,1.0,2.0,98,-99.99,,,-99.99,,2013-06-16 12:02:00,
2013-06-16 08:12:00,74.0,74.0,-100.00,ESE,120,1.0,3.0,98,-99.99,,,-99.99,,2013-06-16 12:12:00,
2013-06-16 08:22:00,74.0,74.0,-100.00,ESE,120,1.0,3.0,98,-99.99,,,-99.99,,2013-06-16 12:22:00,
2013-06-16 08:33:00,74.0,74.0,-100.00,ESE,120,1.0,3.0,98,-99.99,,,-99.99,,2013-06-16 12:33:00,
2013-06-16 08:43:00,76.0,75.0,-100.00,ENE,67,1.0,3.0,97,-99.99,,,-99.99,,2013-06-16 12:43:00,
2013-06-16 08:53:00,76.0,75.0,-100.00,ENE,67,1.0,3.0,97,-99.99,,,-99.99,,2013-06-16 12:53:00,
2013-06-16 09:01:00,82.0,76.0,-100.00,ENE,76,2.0,5.0,82,-99.99,,,-99.99,,2013-06-16 13:01:00,
2013-06-16 09:12:00,82.0,76.0,-100.00,ENE,76,2.0,5.0,82,-99.99,,,-99.99,,2013-06-16 13:12:00,
2013-06-16 09:22:00,82.0,76.0,-100.00,ENE,76,2.0,5.0,82,-99.99,,,-99.99,,2013-06-16 13:22:00,
2013-06-16 09:34:00,82.0,76.0,-100.00,ENE,76,2.0,5.0,82,-99.99,,,-99.99,,2013-06-16 13:34:00,
2013-06-16 09:43:00,82.0,76.0,-100.00,East,91,3.0,7.0,81,-99.99,,,-99.99,,2013-06-16 13:43:00,
2013-06-16 09:54:00,82.0,76.0,-100.00,East,91,3.0,7.0,81,-99.99,,,-99.99,,2013-06-16 13:54:00,
2013-06-16 10:02:00,83.0,76.0,-100.00,East,88,3.0,5.0,78,-99.99,,,-99.99,,2013-06-16 14:02:00,
2013-06-16 10:12:00,83.0,76.0,-100.00,East,88,3.0,5.0,78,-99.99,,,-99.99,,2013-06-16 14:12:00,
2013-06-16 10:22:00,85.0,76.0,-100.00,East,84,3.0,5.0,73,-99.99,,,-99.99,,2013-06-16 14:22:00,
2013-06-16 10:34:00,85.0,76.0,-100.00,East,84,3.0,5.0,73,-99.99,,,-99.99,,2013-06-16 14:34:00,
2013-06-16 10:43:00,86.0,75.0,-100.00,East,88,3.0,7.0,71,-99.99,,,-99.99,,2013-06-16 14:43:00,
2013-06-16 10:53:00,86.0,75.0,-100.00,East,91,3.0,8.0,69,-99.99,,,-99.99,,2013-06-16 14:53:00,
2013-06-16 11:02:00,86.0,75.0,-100.00,East,91,3.0,8.0,69,-99.99,,,-99.99,,2013-06-16 15:02:00,
2013-06-16 11:12:00,86.0,75.0,-100.00,East,91,3.0,8.0,69,-99.99,,,-99.99,,2013-06-16 15:12:00,
2013-06-16 11:23:00,87.0,74.0,-100.00,ESE,108,4.0,8.0,65,-99.99,,,-99.99,,2013-06-16 15:23:00,
2013-06-16 11:34:00,87.0,74.0,-100.00,ESE,108,4.0,8.0,65,-99.99,,,-99.99,,2013-06-16 15:34:00,
2013-06-16 11:43:00,87.0,74.0,-100.00,ESE,113,4.0,8.0,63,-99.99,,,-99.99,,2013-06-16 15:43:00,
2013-06-16 11:53:00,87.0,74.0,-100.00,ESE,113,4.0,8.0,63,-99.99,,,-99.99,,2013-06-16 15:53:00,
2013-06-16 12:02:00,88.0,74.0,-100.00,SSE,149,4.0,8.0,63,-99.99,,,-99.99,,2013-06-16 16:02:00,
2013-06-16 12:12:00,88.0,74.0,-100.00,SSE,149,4.0,8.0,63,-99.99,,,-99.99,,2013-06-16 16:12:00,
2013-06-16 12:23:00,88.0,73.0,-100.00,ENE,73,5.0,10.0,60,-99.99,,,-99.99,,2013-06-16 16:23:00,
2013-06-16 12:33:00,88.0,73.0,-100.00,ESE,104,4.0,7.0,61,-99.99,,,-99.99,,2013-06-16 16:33:00,
2013-06-16 12:43:00,88.0,73.0,-100.00,ESE,104,4.0,7.0,61,-99.99,,,-99.99,,2013-06-16 16:43:00,
2013-06-16 12:53:00,88.0,73.0,-100.00,ESE,104,4.0,7.0,61,-99.99,,,-99.99,,2013-06-16 16:53:00,
2013-06-16 13:02:00,88.0,74.0,-100.00,ESE,114,4.0,11.0,62,-99.99,,,-99.99,,2013-06-16 17:02:00,
2013-06-16 13:12:00,88.0,74.0,-100.00,ESE,114,4.0,11.0,62,-99.99,,,-99.99,,2013-06-16 17:12:00,
2013-06-16 13:22:00,91.0,73.0,-100.00,ESE,105,5.0,11.0,56,-99.99,,,-99.99,,2013-06-16 17:22:00,
2013-06-16 13:34:00,91.0,73.0,-100.00,ESE,105,5.0,11.0,56,-99.99,,,-99.99,,2013-06-16 17:34:00,
2013-06-16 13:43:00,91.0,73.0,-100.00,ESE,105,5.0,11.0,56,-99.99,,,-99.99,,2013-06-16 17:43:00,
2013-06-16 13:53:00,91.0,73.0,-100.00,ESE,105,5.0,11.0,56,-99.99,,,-99.99,,2013-06-16 17:53:00,
2013-06-16 14:02:00,92.0,74.0,-100.00,SE,129,5.0,11.0,55,-99.99,,,-99.99,,2013-06-16 18:02:00,
2013-06-16 14:12:00,92.0,74.0,-100.00,SE,129,5.0,11.0,55,-99.99,,,-99.99,,2013-06-16 18:12:00,
2013-06-16 14:22:00,88.0,73.0,-100.00,ESE,122,4.0,9.0,60,-99.99,,,-99.99,,2013-06-16 18:22:00,
2013-06-16 14:33:00,88.0,73.0,-100.00,ESE,122,4.0,9.0,60,-99.99,,,-99.99,,2013-06-16 18:33:00,
2013-06-16 14:43:00,88.0,73.0,-100.00,ESE,122,4.0,9.0,60,-99.99,,,-99.99,,2013-06-16 18:43:00,
2013-06-16 14:52:00,88.0,73.0,-100.00,ESE,122,4.0,9.0,60,-99.99,,,-99.99,,2013-06-16 18:52:00,
2013-06-16 15:01:00,91.0,73.0,-100.00,ESE,122,5.0,10.0,55,-99.99,,,-99.99,,2013-06-16 19:01:00,
2013-06-16 15:12:00,89.0,73.0,-100.00,SE,132,5.0,55.0,58,-99.99,,,-99.99,,2013-06-16 19:12:00,
2013-06-16 15:22:00,89.0,73.0,-100.00,SE,132,5.0,55.0,58,-99.99,,,-99.99,,2013-06-16 19:22:00,
2013-06-16 15:34:00,89.0,72.0,-100.00,East,98,14.0,56.0,56,-99.99,,,-99.99,,2013-06-16 19:34:00,
2013-06-16 15:43:00,89.0,72.0,-100.00,East,98,14.0,56.0,56,-99.99,,,-99.99,,2013-06-16 19:43:00,
2013-06-16 15:54:00,89.0,72.0,-100.00,East,98,14.0,56.0,56,-99.99,,,-99.99,,2013-06-16 19:54:00,
2013-06-16 16:02:00,88.0,73.0,-100.00,SSW,200,3.0,6.0,59,-99.99,,,-99.99,,2013-06-16 20:02:00,
2013-06-16 16:12:00,88.0,73.0,-100.00,SSW,200,3.0,6.0,59,-99.99,,,-99.99,,2013-06-16 20:12:00,
2013-06-16 16:22:00,88.0,77.0,-100.00,WSW,258,5.0,9.0,69,-99.99,,,-99.99,,2013-06-16 20:22:00,
2013-06-16 16:33:00,88.0,77.0,-100.00,WSW,258,5.0,9.0,69,-99.99,,,-99.99,,2013-06-16 20:33:00,
2013-06-16 16:42:00,89.0,77.0,-100.00,SW,236,5.0,13.0,66,-99.99,,,-99.99,,2013-06-16 20:42:00,
2013-06-16 16:53:00,89.0,76.0,-100.00,West,263,7.0,14.0,66,-99.99,,,-99.99,,2013-06-16 20:53:00,
2013-06-16 17:02:00,89.0,76.0,-100.00,West,263,7.0,14.0,66,-99.99,,,-99.99,,2013-06-16 21:02:00,
2013-06-16 17:11:00,89.0,76.0,-100.00,West,263,7.0,14.0,66,-99.99,,,-99.99,,2013-06-16 21:11:00,
2013-06-16 17:22:00,90.0,77.0,-100.00,SW,228,7.0,11.0,64,-99.99,,,-99.99,,2013-06-16 21:22:00,
2013-06-16 17:33:00,90.0,77.0,-100.00,SW,228,7.0,11.0,64,-99.99,,,-99.99,,2013-06-16 21:33:00,
2013-06-16 17:42:00,90.0,76.0,-100.00,SW,233,6.0,12.0,63,-99.99,,,-99.99,,2013-06-16 21:42:00,
2013-06-16 17:53:00,90.0,76.0,-100.00,SW,233,6.0,12.0,63,-99.99,,,-99.99,,2013-06-16 21:53:00,
2013-06-16 18:01:00,90.0,76.0,-100.00,SW,233,6.0,12.0,63,-99.99,,,-99.99,,2013-06-16 22:01:00,
2013-06-16 18:12:00,90.0,76.0,-100.00,SW,233,6.0,12.0,63,-99.99,,,-99.99,,2013-06-16 22:12:00,
2013-06-16 18:22:00,89.0,75.0,-100.00,WSW,241,5.0,11.0,62,-99.99,,,-99.99,,2013-06-16 22:22:00,
2013-06-16 18:32:00,89.0,75.0,-100.00,WSW,241,5.0,11.0,62,-99.99,,,-99.99,,2013-06-16 22:32:00,
2013-06-16 18:42:00,89.0,75.0,-100.00,WSW,258,6.0,9.0,62,-99.99,,,-99.99,,2013-06-16 22:42:00,
2013-06-16 18:52:00,89.0,75.0,-100.00,WSW,258,6.0,9.0,62,-99.99,,,-99.99,,2013-06-16 22:52:00,
2013-06-16 19:02:00,89.0,76.0,-100.00,WNW,283,7.0,12.0,64,-99.99,,,-99.99,,2013-06-16 23:02:00,
2013-06-16 19:11:00,89.0,76.0,-100.00,WNW,283,7.0,12.0,64,-99.99,,,-99.99,,2013-06-16 23:11:00,
2013-06-16 19:22:00,88.0,75.0,-100.00,WNW,301,6.0,10.0,65,-99.99,,,-99.99,,2013-06-16 23:22:00,
2013-06-16 19:32:00,87.0,77.0,-100.00,WNW,303,6.0,13.0,71,-99.99,,,-99.99,,2013-06-16 23:32:00,
2013-06-16 19:42:00,87.0,77.0,-100.00,WNW,303,6.0,13.0,71,-99.99,,,-99.99,,2013-06-16 23:42:00,
2013-06-16 19:52:00,87.0,77.0,-100.00,WNW,303,6.0,13.0,71,-99.99,,,-99.99,,2013-06-16 23:52:00,
2013-06-16 20:02:00,86.0,76.0,-100.00,NW,316,7.0,12.0,73,-99.99,,,-99.99,,2013-06-17 00:02:00,
2013-06-16 20:12:00,86.0,76.0,-100.00,NW,316,7.0,12.0,73,-99.99,,,-99.99,,2013-06-17 00:12:00,
2013-06-16 20:22:00,85.0,76.0,-100.00,NW,304,4.0,9.0,74,-99.99,,,-99.99,,2013-06-17 00:22:00,
2013-06-16 20:32:00,85.0,76.0,-100.00,NW,304,4.0,9.0,74,-99.99,,,-99.99,,2013-06-17 00:32:00,
2013-06-16 20:43:00,84.0,74.0,-100.00,SSW,192,6.0,15.0,73,-99.99,,,-99.99,,2013-06-17 00:43:00,
2013-06-16 20:52:00,84.0,74.0,-100.00,SSW,192,6.0,15.0,73,-99.99,,,-99.99,,2013-06-17 00:52:00,
2013-06-16 21:02:00,79.0,72.0,-100.00,ENE,73,9.0,18.0,78,-99.99,,,-99.99,,2013-06-17 01:02:00,
2013-06-16 21:12:00,73.0,70.0,-100.00,SSW,199,5.0,8.0,90,-99.99,,,-99.99,,2013-06-17 01:12:00,
2013-06-16 22:02:00,74.0,73.0,-100.00,SSE,165,2.0,7.0,96,-99.99,,,-99.99,,2013-06-17 02:02:00,
2013-06-16 22:12:00,74.0,73.0,-100.00,SSE,165,2.0,7.0,96,-99.99,,,-99.99,,2013-06-17 02:12:00,
2013-06-16 22:22:00,74.0,73.0,-100.00,SSE,165,2.0,7.0,96,-99.99,,,-99.99,,2013-06-17 02:22:00,
2013-06-16 22:34:00,74.0,73.0,-100.00,SSE,165,2.0,7.0,96,-99.99,,,-99.99,,2013-06-17 02:34:00,
2013-06-16 22:43:00,74.0,73.0,-100.00,ESE,111,1.0,2.0,96,-99.99,,,-99.99,,2013-06-17 02:43:00,
2013-06-16 22:53:00,74.0,73.0,-100.00,ESE,111,1.0,2.0,96,-99.99,,,-99.99,,2013-06-17 02:53:00,
2013-06-16 23:02:00,74.0,73.0,-100.00,SW,220,1.0,2.0,96,-99.99,,,-99.99,,2013-06-17 03:02:00,
2013-06-16 23:12:00,74.0,73.0,-100.00,SW,220,1.0,2.0,96,-99.99,,,-99.99,,2013-06-17 03:12:00,
2013-06-16 23:33:00,75.0,74.0,-100.00,SSE,155,5.0,10.0,97,-99.99,,,-99.99,,2013-06-17 03:33:00,
2013-06-16 23:44:00,76.0,74.0,-100.00,SSE,156,6.0,11.0,95,-99.99,,,-99.99,,2013-06-17 03:44:00,
2013-06-16 23:54:00,76.0,74.0,-100.00,South,186,6.0,14.0,93,-99.99,,,-99.99,,2013-06-17 03:54:00,